FW9737 Weather Reports


time (UTC)temp
C
wind
direction
speed
KPH
gust
KPH
rain 1hr
cm
rain 24hr
cm
rain mn
cm
humidity
%
barometer
mb
20260510022517 17 360 0.0 3.2 0.00 0.00 0.00 67 1010.8
20260510022018 17 0 0.0 3.2 0.00 0.00 0.00 68 1010.7
20260510021541 17 0 0.0 3.2 0.00 0.00 0.00 68 1010.6
20260510021016 17 360 1.6 3.2 0.00 0.00 0.00 68 1010.6
20260510020516 17 360 1.6 3.2 0.00 0.00 0.00 68 1010.6
20260510020032 17 0 0.0 3.2 0.00 0.00 0.00 68 1010.4
20260510015517 17 360 1.6 3.2 0.00 0.00 0.00 67 1010.3
20260510015013 17 360 1.6 3.2 0.00 0.00 0.00 67 1010.2
20260510014532 18 0 0.0 0.0 0.00 0.00 0.00 65 1010.2
20260510014016 18 0 0.0 1.6 0.00 0.00 0.00 63 1010.0
20260510013516 18 0 0.0 3.2 0.00 0.00 0.00 62 1009.9
20260510013038 19 0 0.0 3.2 0.00 0.00 0.00 61 1009.8
20260510012516 20 360 0.0 3.2 0.00 0.00 0.00 60 1009.7
20260510012018 20 0 0.0 4.8 0.00 0.00 0.00 59 1009.5
20260510011538 20 0 1.6 6.4 0.00 0.00 0.00 58 1009.4
20260510011019 20 360 3.2 6.4 0.00 0.00 0.00 58 1009.2
20260510010517 20 360 3.2 8.0 0.00 0.00 0.00 58 1009.2
20260510010037 20 360 3.2 8.0 0.00 0.00 0.00 58 1009.1
20260510005516 20 360 3.2 6.4 0.00 0.00 0.00 58 1009.1
20260510005017 20 360 3.2 6.4 0.00 0.00 0.00 57 1009.0
20260510004534 20 360 3.2 6.4 0.00 0.00 0.00 56 1008.9
20260510004017 20 360 3.2 4.8 0.00 0.00 0.00 56 1008.9
20260510003517 20 360 3.2 4.8 0.00 0.00 0.00 55 1008.8
20260510003035 21 360 1.6 4.8 0.00 0.00 0.00 54 1008.8
20260510002517 21 360 1.6 6.4 0.00 0.00 0.00 54 1008.8
20260510002019 21 360 3.2 6.4 0.00 0.00 0.00 53 1008.6
20260510001536 21 360 3.2 6.4 0.00 0.00 0.00 53 1008.7
20260510001018 21 360 3.2 6.4 0.00 0.00 0.00 52 1008.7
20260510000518 21 360 1.6 6.4 0.00 0.00 0.00 52 1008.8
20260510000046 21 360 1.6 4.8 0.00 0.00 0.00 52 1008.7
20260509235518 22 360 1.6 4.8 0.00 0.00 0.00 51 1008.7
20260509235017 22 360 1.6 6.4 0.00 0.00 0.00 50 1008.6
20260509234536 22 360 3.2 6.4 0.00 0.00 0.00 49 1008.6
20260509234017 22 360 1.6 4.8 0.00 0.00 0.00 49 1008.6
20260509233516 22 360 1.6 4.8 0.00 0.00 0.00 48 1008.6
20260509233033 22 0 1.6 6.4 0.00 0.00 0.00 47 1008.6
20260509232521 23 0 1.6 9.7 0.00 0.00 0.00 48 1008.5
20260509232018 23 0 3.2 9.7 0.00 0.00 0.00 47 1008.4
20260509231533 23 360 1.6 9.7 0.00 0.00 0.00 46 1008.5
20260509231017 23 360 1.6 12.9 0.00 0.00 0.00 46 1008.3
20260509230518 23 360 3.2 12.9 0.00 0.00 0.00 45 1008.5
20260509230039 23 360 4.8 12.9 0.00 0.00 0.00 44 1008.4
20260509225520 23 360 3.2 14.5 0.00 0.00 0.00 45 1008.5
20260509225017 23 360 3.2 16.1 0.00 0.00 0.00 44 1008.3
20260509224539 23 360 6.4 16.1 0.00 0.00 0.00 44 1008.3
20260509224017 23 360 1.6 8.0 0.00 0.00 0.00 46 1008.5
20260509223517 23 360 1.6 8.0 0.00 0.00 0.00 46 1008.5
20260509223035 23 360 0.0 6.4 0.00 0.00 0.00 47 1008.4
20260509222518 23 360 1.6 9.7 0.00 0.00 0.00 45 1008.4
20260509222017 23 360 4.8 12.9 0.00 0.00 0.00 43 1008.5
20260509221539 23 360 4.8 12.9 0.00 0.00 0.00 43 1008.5
20260509221019 24 360 3.2 12.9 0.00 0.00 0.00 44 1008.5
20260509220516 23 0 3.2 12.9 0.00 0.00 0.00 46 1008.5
20260509220037 23 360 3.2 9.7 0.00 0.00 0.00 45 1008.4
20260509215519 23 360 4.8 9.7 0.00 0.00 0.00 45 1008.5
20260509215017 23 360 4.8 9.7 0.00 0.00 0.00 45 1008.5
20260509214533 23 360 1.6 9.7 0.00 0.00 0.00 46 1008.3
20260509214016 22 0 3.2 14.5 0.00 0.00 0.00 46 1008.3
20260509213517 23 360 1.6 14.5 0.00 0.00 0.00 46 1008.4
20260509213032 23 360 6.4 14.5 0.00 0.00 0.00 44 1008.3
20260509212517 23 360 3.2 9.7 0.00 0.00 0.00 45 1008.3
20260509212017 23 360 3.2 16.1 0.00 0.00 0.00 46 1008.3
20260509211600 23 360 4.8 16.1 0.00 0.00 0.00 46 1008.3
20260509211017 22 360 4.8 14.5 0.00 0.00 0.00 46 1008.3
20260509210518 22 360 4.8 14.5 0.00 0.00 0.00 47 1008.2
20260509210038 22 360 3.2 14.5 0.00 0.00 0.00 46 1008.1
20260509205517 22 360 3.2 14.5 0.00 0.00 0.00 46 1008.0
20260509205019 22 360 4.8 14.5 0.00 0.00 0.00 46 1008.1
20260509204542 22 360 3.2 14.5 0.00 0.00 0.00 47 1008.1
20260509204017 22 360 3.2 14.5 0.00 0.00 0.00 47 1008.2
20260509203516 23 360 4.8 17.7 0.00 0.00 0.00 48 1008.1
20260509203041 23 360 4.8 17.7 0.00 0.00 0.00 47 1008.1
20260509202517 23 360 4.8 16.1 0.00 0.00 0.00 47 1008.1
20260509202020 23 360 3.2 14.5 0.00 0.00 0.00 48 1008.1
20260509201533 23 360 3.2 14.5 0.00 0.00 0.00 47 1008.2
20260509201021 23 360 4.8 14.5 0.00 0.00 0.00 46 1008.1
20260509200517 23 360 4.8 14.5 0.00 0.00 0.00 48 1008.1
20260509200032 23 360 4.8 17.7 0.00 0.00 0.00 49 1008.2
20260509195517 23 360 6.4 20.9 0.00 0.00 0.00 48 1008.3
20260509195017 23 360 9.7 20.9 0.00 0.00 0.00 47 1008.5
20260509194543 23 360 4.8 14.5 0.00 0.00 0.00 51 1008.7
20260509194017 23 360 4.8 17.7 0.00 0.00 0.00 49 1008.7
20260509193516 22 360 3.2 17.7 0.00 0.00 0.00 49 1008.8
20260509193036 22 360 6.4 17.7 0.00 0.00 0.00 52 1009.0
20260509192519 22 360 4.8 14.5 0.00 0.00 0.00 50 1008.9
20260509192014 22 0 4.8 16.1 0.00 0.00 0.00 52 1009.0
20260509191530 22 360 6.4 16.1 0.00 0.00 0.00 50 1009.1
20260509191020 22 360 4.8 16.1 0.00 0.00 0.00 54 1009.2
20260509190517 21 360 4.8 17.7 0.00 0.00 0.00 55 1009.3
20260509190043 21 360 4.8 17.7 0.00 0.00 0.00 56 1009.4
20260509185517 21 360 4.8 17.7 0.00 0.00 0.00 55 1009.6
20260509185017 21 360 8.0 17.7 0.00 0.00 0.00 52 1009.5
20260509184533 21 360 4.8 14.5 0.00 0.00 0.00 57 1009.6
20260509184017 21 360 6.4 14.5 0.00 0.00 0.00 56 1009.6
20260509183515 21 360 3.2 19.3 0.00 0.00 0.00 57 1009.7
20260509183038 21 360 4.8 19.3 0.00 0.00 0.00 57 1009.7
20260509182515 21 360 4.8 14.5 0.00 0.00 0.00 57 1009.8
20260509182016 21 360 3.2 12.9 0.00 0.00 0.00 59 1009.9
20260509181535 20 360 1.6 16.1 0.00 0.00 0.00 59 1009.9
20260509181014 20 360 6.4 16.1 0.00 0.00 0.00 58 1010.1
20260509180515 20 0 1.6 14.5 0.00 0.00 0.00 59 1010.3
20260509180034 20 360 4.8 14.5 0.00 0.00 0.00 59 1010.5
20260509175517 20 360 1.6 16.1 0.00 0.00 0.00 61 1010.5
20260509175014 20 360 3.2 16.1 0.00 0.00 0.00 59 1010.6
20260509174534 20 360 6.4 12.9 0.00 0.00 0.00 59 1010.6
20260509174014 20 360 3.2 9.7 0.00 0.00 0.00 59 1010.5
20260509173518 20 360 1.6 9.7 0.00 0.00 0.00 62 1010.6
20260509173033 20 360 3.2 12.9 0.00 0.00 0.00 60 1010.7
20260509172517 20 360 4.8 12.9 0.00 0.00 0.00 59 1010.7
20260509172014 20 360 3.2 16.1 0.00 0.00 0.00 60 1010.8
20260509171535 20 360 3.2 16.1 0.00 0.00 0.00 60 1010.8
20260509171015 20 360 3.2 14.5 0.00 0.00 0.00 59 1010.9
20260509170514 20 360 6.4 17.7 0.00 0.00 0.00 59 1010.8
20260509170032 20 360 8.0 17.7 0.00 0.00 0.00 59 1010.7
20260509165514 20 360 8.0 17.7 0.00 0.00 0.00 59 1010.7
20260509165016 20 360 8.0 16.1 0.00 0.00 0.00 59 1010.6
20260509164534 20 360 4.8 16.1 0.00 0.00 0.00 60 1010.6
20260509164013 20 360 4.8 17.7 0.00 0.00 0.00 59 1010.7
20260509163514 20 360 6.4 22.5 0.00 0.00 0.00 59 1010.7
20260509163048 19 360 8.0 22.5 0.00 0.00 0.00 58 1010.7
20260509162514 19 360 6.4 14.5 0.00 0.00 0.00 60 1010.7
20260509162013 19 360 4.8 12.9 0.00 0.00 0.00 60 1010.8
20260509161533 19 360 3.2 14.5 0.00 0.00 0.00 60 1010.9
20260509161014 18 360 6.4 17.7 0.00 0.00 0.00 60 1010.9
20260509160517 18 360 4.8 17.7 0.00 0.00 0.00 61 1010.9
20260509160033 18 360 6.4 17.7 0.00 0.00 0.00 61 1011.0
20260509155516 18 360 4.8 14.5 0.00 0.00 0.00 61 1011.0
20260509155014 18 360 6.4 14.5 0.00 0.00 0.00 60 1011.0
20260509154537 18 360 3.2 17.7 0.00 0.00 0.00 61 1010.9
20260509154017 18 360 4.8 17.7 0.00 0.00 0.00 62 1010.9
20260509153514 18 360 4.8 17.7 0.00 0.00 0.00 61 1010.7
20260509153035 18 360 4.8 17.7 0.00 0.00 0.00 62 1010.8
20260509152514 18 360 1.6 14.5 0.00 0.00 0.00 62 1011.1
20260509152020 18 360 4.8 14.5 0.00 0.00 0.00 62 1011.2
20260509151532 17 360 4.8 16.1 0.00 0.00 0.00 62 1011.1
20260509151014 17 360 4.8 16.1 0.00 0.00 0.00 60 1011.0
20260509150516 17 360 6.4 16.1 0.00 0.00 0.00 61 1010.9
20260509150037 17 360 3.2 20.9 0.00 0.00 0.00 62 1011.1
20260509145514 17 360 6.4 20.9 0.00 0.00 0.00 62 1011.0
20260509145019 17 360 8.0 20.9 0.00 0.00 0.00 63 1011.0
20260509144533 17 360 4.8 14.5 0.00 0.00 0.00 64 1011.2
20260509144017 16 360 4.8 14.5 0.00 0.00 0.00 63 1011.2
20260509143520 16 360 6.4 14.5 0.00 0.00 0.00 64 1011.3
20260509143036 16 360 6.4 14.5 0.00 0.00 0.00 64 1011.3
20260509142513 15 360 4.8 16.1 0.00 0.00 0.00 64 1011.4
20260509142017 15 360 4.8 16.1 0.00 0.00 0.00 64 1011.5
20260509141533 15 360 4.8 17.7 0.00 0.00 0.00 64 1011.5
20260509141016 15 360 8.0 17.7 0.00 0.00 0.00 65 1011.6
20260509140516 15 360 4.8 14.5 0.00 0.00 0.00 65 1011.6
20260509140032 15 360 8.0 19.3 0.00 0.00 0.00 64 1011.7
20260509135514 15 360 6.4 19.3 0.00 0.00 0.00 65 1011.7
20260509135017 14 360 3.2 16.1 0.00 0.00 0.00 66 1011.7
20260509134536 14 360 6.4 16.1 0.00 0.00 0.00 66 1011.8
20260509134013 14 360 4.8 14.5 0.00 0.00 0.00 66 1011.8
20260509133517 14 360 4.8 14.5 0.00 0.00 0.00 66 1011.8
20260509133034 14 360 6.4 19.3 0.00 0.00 0.00 65 1011.9
20260509132519 13 360 6.4 19.3 0.00 0.00 0.00 66 1011.8
20260509132014 13 360 6.4 20.9 0.00 0.00 0.00 65 1011.8
20260509131609 13 360 6.4 20.9 0.00 0.00 0.00 66 1011.7
20260509131018 13 360 6.4 17.7 0.00 0.00 0.00 66 1011.7
20260509130519 13 360 9.7 17.7 0.00 0.00 0.00 65 1011.8
20260509130032 13 360 4.8 16.1 0.00 0.00 0.00 65 1011.8
20260509125513 13 360 3.2 8.0 0.00 0.00 0.00 66 1011.9
20260509125014 13 360 3.2 12.9 0.00 0.00 0.00 67 1011.9
20260509124533 13 360 4.8 12.9 0.00 0.00 0.00 65 1011.9
20260509124017 13 360 3.2 12.9 0.00 0.00 0.00 66 1011.9
20260509123517 13 360 3.2 14.5 0.00 0.00 0.00 66 1011.8
20260509123033 13 360 6.4 14.5 0.00 0.00 0.00 66 1011.9
20260509122516 13 360 3.2 14.5 0.00 0.00 0.00 66 1011.9
20260509122019 13 360 4.8 16.1 0.00 0.00 0.00 66 1011.8
20260509121538 13 360 3.2 16.1 0.00 0.00 0.00 67 1011.8
20260509121014 12 360 6.4 16.1 0.00 0.00 0.00 66 1011.9
20260509120516 12 360 4.8 17.7 0.00 0.00 0.00 66 1011.8
20260509120038 12 360 4.8 17.7 0.00 0.00 0.00 66 1011.8
20260509115516 12 360 6.4 17.7 0.00 0.00 0.00 67 1011.9
20260509115017 12 360 4.8 16.1 0.00 0.00 0.00 66 1011.8
20260509114535 12 360 6.4 16.1 0.00 0.00 0.00 66 1011.7
20260509114014 12 360 6.4 14.5 0.00 0.00 0.00 66 1011.7
20260509113517 12 360 4.8 17.7 0.00 0.00 0.00 67 1011.7
20260509113034 12 360 6.4 17.7 0.00 0.00 0.00 67 1011.6
20260509112514 12 360 6.4 17.7 0.00 0.00 0.00 67 1011.6
20260509112014 12 360 6.4 16.1 0.00 0.00 0.00 67 1011.5
20260509111534 12 360 4.8 16.1 0.00 0.00 0.00 66 1011.4
20260509111015 12 360 4.8 16.1 0.00 0.00 0.00 66 1011.5
20260509110517 12 360 4.8 16.1 0.00 0.00 0.00 66 1011.5
20260509110034 12 360 3.2 12.9 0.00 0.00 0.00 66 1011.6
20260509105520 12 360 4.8 12.9 0.00 0.00 0.00 65 1011.6
20260509105014 12 360 3.2 12.9 0.00 0.00 0.00 65 1011.5
20260509104535 12 360 3.2 12.9 0.00 0.00 0.00 65 1011.5
20260509104013 12 360 4.8 8.0 0.00 0.00 0.00 64 1011.4
20260509103514 12 360 3.2 9.7 0.00 0.00 0.00 63 1011.5
20260509103030 12 360 1.6 9.7 0.00 0.00 0.00 63 1011.5
20260509102519 12 360 3.2 8.0 0.00 0.00 0.00 62 1011.4
20260509102015 12 360 3.2 8.0 0.00 0.00 0.00 62 1011.5
20260509101535 12 360 1.6 8.0 0.00 0.00 0.00 62 1011.4
20260509101014 12 360 3.2 12.9 0.00 0.00 0.00 61 1011.4
20260509100514 12 360 0.0 12.9 0.00 0.00 0.00 61 1011.4
20260509100034 12 360 3.2 12.9 0.00 0.00 0.00 61 1011.4
20260509095517 12 360 3.2 12.9 0.00 0.00 0.00 61 1011.3
20260509095015 12 360 3.2 17.7 0.00 0.00 0.00 61 1011.4
20260509094533 12 360 4.8 17.7 0.00 0.00 0.00 61 1011.4
20260509094014 12 360 4.8 16.1 0.00 0.00 0.00 61 1011.4
20260509093517 12 360 6.4 16.1 0.00 0.00 0.00 61 1011.6
20260509093035 12 360 3.2 16.1 0.00 0.00 0.00 62 1011.5
20260509092517 12 360 4.8 16.1 0.00 0.00 0.00 62 1011.5
20260509092017 12 360 4.8 12.9 0.00 0.00 0.00 62 1011.6
20260509091538 12 360 4.8 9.7 0.00 0.00 0.00 62 1011.5
20260509091017 12 360 4.8 9.7 0.00 0.00 0.00 62 1011.6
20260509090517 12 360 4.8 14.5 0.00 0.00 0.00 62 1011.6
20260509090035 12 360 4.8 14.5 0.00 0.00 0.00 62 1011.7
20260509085516 12 360 4.8 12.9 0.00 0.00 0.00 61 1011.8
20260509085017 12 360 4.8 12.9 0.00 0.00 0.00 61 1011.8
20260509084539 12 360 4.8 9.7 0.00 0.00 0.00 61 1011.9
20260509084016 12 360 4.8 9.7 0.00 0.00 0.00 61 1011.8
20260509083520 12 360 4.8 12.9 0.00 0.00 0.00 61 1012.0
20260509083033 12 360 4.8 12.9 0.00 0.00 0.00 61 1012.0
20260509082516 12 360 6.4 14.5 0.00 0.00 0.00 60 1012.0
20260509082014 13 360 4.8 14.5 0.00 0.00 0.00 61 1012.0
20260509081536 13 360 8.0 16.1 0.00 0.00 0.00 60 1012.0
20260509081017 13 360 8.0 16.1 0.00 0.00 0.00 59 1012.0
20260509080515 13 360 6.4 14.5 0.00 0.00 0.00 59 1012.1
20260509080052 13 360 4.8 12.9 0.00 0.00 0.00 58 1012.0
20260509075517 13 360 6.4 12.9 0.00 0.00 0.00 57 1012.1
20260509075020 13 360 4.8 12.9 0.00 0.00 0.00 57 1012.2
20260509074537 13 360 6.4 14.5 0.00 0.00 0.00 57 1012.2
20260509074017 13 360 6.4 14.5 0.00 0.00 0.00 56 1012.3
20260509073517 13 360 4.8 12.9 0.00 0.00 0.00 56 1012.2
20260509073103 13 360 6.4 12.9 0.00 0.00 0.00 56 1012.1
20260509072517 13 360 4.8 12.9 0.00 0.00 0.00 56 1012.3
20260509072016 13 360 4.8 12.9 0.00 0.00 0.00 55 1012.2
20260509071532 13 360 4.8 9.7 0.00 0.00 0.00 55 1012.2
20260509071017 13 360 3.2 8.0 0.00 0.00 0.00 56 1012.2
20260509070517 13 360 4.8 9.7 0.00 0.00 0.00 55 1012.2
20260509070036 13 360 4.8 9.7 0.00 0.00 0.00 56 1012.2
20260509065520 13 360 4.8 12.9 0.00 0.00 0.00 56 1012.2
20260509065016 13 360 4.8 12.9 0.00 0.00 0.00 56 1012.3
20260509064534 13 360 1.6 9.7 0.00 0.00 0.00 56 1012.3
20260509064017 13 360 3.2 9.7 0.00 0.00 0.00 56 1012.3
20260509063514 13 360 3.2 9.7 0.00 0.00 0.00 56 1012.2
20260509063034 13 360 1.6 8.0 0.00 0.00 0.00 56 1012.4
20260509062514 13 0 3.2 12.9 0.00 0.00 0.00 57 1012.5
20260509062016 13 360 4.8 12.9 0.00 0.00 0.00 57 1012.7
20260509061539 13 360 4.8 12.9 0.00 0.00 0.00 57 1012.5
20260509061015 13 360 4.8 12.9 0.00 0.00 0.00 57 1012.7
20260509060514 13 360 4.8 14.5 0.00 0.00 0.00 57 1012.7
20260509060030 13 360 4.8 14.5 0.00 0.00 0.00 57 1012.7
20260509055517 13 360 4.8 9.7 0.00 0.00 0.00 57 1012.7
20260509055016 13 360 4.8 8.0 0.00 0.00 0.00 57 1012.7
20260509054537 13 360 3.2 8.0 0.00 0.00 0.00 56 1012.8
20260509054014 13 360 3.2 8.0 0.00 0.00 0.00 56 1012.8
20260509053517 13 360 1.6 8.0 0.00 0.00 0.00 56 1012.9
20260509053033 13 360 3.2 8.0 0.00 0.00 0.00 55 1012.8
20260509052517 13 360 3.2 8.0 0.00 0.00 0.00 56 1012.8
20260509052014 13 360 1.6 4.8 0.00 0.00 0.00 55 1012.7
20260509051538 13 360 1.6 6.4 0.00 0.00 0.00 54 1012.8
20260509051014 13 360 1.6 6.4 0.00 0.00 0.00 54 1012.8
20260509050518 13 360 1.6 8.0 0.00 0.00 0.00 54 1012.8
20260509050038 13 360 3.2 8.0 0.00 0.00 0.00 53 1012.7
20260509045514 14 360 3.2 9.7 0.00 0.00 0.00 53 1012.6
20260509045013 14 360 4.8 9.7 0.00 0.00 0.00 53 1012.5
20260509044536 14 360 4.8 14.5 0.00 0.00 0.00 53 1012.5
20260509044014 14 360 4.8 14.5 0.00 0.00 0.00 53 1012.4
20260509043513 14 360 6.4 16.1 0.00 0.00 0.00 52 1012.5
20260509043043 14 360 6.4 16.1 0.00 0.00 0.00 52 1012.6
20260509042517 14 360 4.8 14.5 0.00 0.00 0.00 52 1012.6
20260509042017 15 360 4.8 16.1 0.00 0.00 0.00 52 1012.6
20260509041532 15 360 6.4 16.1 0.00 0.00 0.00 52 1012.7
20260509041017 15 360 6.4 14.5 0.00 0.00 0.00 52 1012.7
20260509040516 15 360 6.4 16.1 0.00 0.00 0.00 52 1012.7
20260509040035 15 360 6.4 16.1 0.00 0.00 0.00 51 1012.7
20260509035517 15 360 6.4 16.1 0.00 0.00 0.00 52 1012.9
20260509035015 15 360 6.4 14.5 0.00 0.00 0.00 52 1012.8
20260509034531 15 360 6.4 14.5 0.00 0.00 0.00 51 1012.9
20260509034015 15 360 6.4 16.1 0.00 0.00 0.00 51 1013.0
20260509033516 15 360 8.0 16.1 0.00 0.00 0.00 51 1013.0
20260509033032 15 360 8.0 16.1 0.00 0.00 0.00 51 1012.9
20260509032514 15 360 6.4 16.1 0.00 0.00 0.00 51 1013.1
20260509032013 15 360 4.8 19.3 0.00 0.00 0.00 51 1013.1
20260509031535 15 360 6.4 19.3 0.00 0.00 0.00 51 1013.1
20260509031016 15 360 6.4 16.1 0.00 0.00 0.00 51 1013.0
20260509030521 15 360 6.4 17.7 0.00 0.00 0.00 52 1013.0
20260509030039 15 360 6.4 17.7 0.00 0.00 0.00 52 1013.0
20260509025516 15 360 8.0 17.7 0.00 0.00 0.00 51 1013.0
20260509025016 15 360 6.4 16.1 0.00 0.00 0.00 51 1013.1
20260509024532 15 360 6.4 16.1 0.00 0.00 0.00 51 1013.2
20260509024017 15 360 6.4 14.5 0.00 0.00 0.00 51 1013.1
20260509023516 15 360 4.8 14.5 0.00 0.00 0.00 51 1013.1
20260509023032 15 360 4.8 14.5 0.00 0.00 0.00 52 1013.0